contact:dominique.lefevre@mio.osupytheas.fr, maurice.libes@osupytheas.fr, didier.mallarino@osupytheas.fr
Project:EMSO http://www.emso-fr.org/EMSO-France
Depth: 2436.0 m
Title:EMSO Ligure Ouest : Data MII capteur CSTAR
DateTime,Latitude,Longitude,Instrument_Serial,Reference_Counts,Signal_Counts,Corrected_Signal_raw_counts,Calculated_Beam_c_inverse_meters,Internal_thermistor_counts
DateTime,Latitude,Longitude,Instrument_Serial,Reference_Counts,Signal_Counts,Corrected_Signal_raw_counts,Calculated_Beam_c_inverse_meters,Internal_thermistor_counts
2023-12-17T00:02:21,42.805,6.029,CST-1368DR,4083,4334,11246,01.313,553
2023-12-17T00:05:22,42.805,6.029,CST-1368DR,4083,4335,11248,01.312,553
2023-12-17T00:08:24,42.805,6.029,CST-1368DR,4083,4334,11245,01.313,553
2023-12-17T00:11:25,42.805,6.029,CST-1368DR,4083,4339,11258,01.309,553
2023-12-17T00:14:27,42.805,6.029,CST-1368DR,4083,4338,11257,01.309,553
2023-12-17T00:17:29,42.805,6.029,CST-1368DR,4083,4338,11255,01.310,553
2023-12-17T00:20:30,42.805,6.029,CST-1368DR,4083,4335,11248,01.312,553
2023-12-17T00:23:32,42.805,6.029,CST-1368DR,4083,4336,11250,01.312,553
2023-12-17T00:26:33,42.805,6.029,CST-1368DR,4083,4339,11259,01.309,553
2023-12-17T00:29:35,42.805,6.029,CST-1368DR,4083,4337,11253,01.311,553
2023-12-17T00:32:37,42.805,6.029,CST-1368DR,4083,4337,11254,01.310,553
2023-12-17T00:35:38,42.805,6.029,CST-1368DR,4083,4340,11261,01.308,553
2023-12-17T00:38:40,42.805,6.029,CST-1368DR,4083,4339,11258,01.309,553
2023-12-17T00:41:41,42.805,6.029,CST-1368DR,4083,4337,11255,01.310,553
2023-12-17T00:44:43,42.805,6.029,CST-1368DR,4083,4338,11256,01.310,553
2023-12-17T00:47:44,42.805,6.029,CST-1368DR,4083,4336,11251,01.311,553
2023-12-17T00:50:46,42.805,6.029,CST-1368DR,4083,4339,11258,01.309,553
2023-12-17T00:53:48,42.805,6.029,CST-1368DR,4083,4338,11256,01.310,553
2023-12-17T00:56:49,42.805,6.029,CST-1368DR,4083,4336,11251,01.311,553
2023-12-17T00:59:51,42.805,6.029,CST-1368DR,4083,4339,11258,01.309,553
2023-12-17T01:02:52,42.805,6.029,CST-1368DR,4083,4336,11250,01.312,553
2023-12-17T01:05:54,42.805,6.029,CST-1368DR,4083,4341,11263,01.307,553
2023-12-17T01:08:55,42.805,6.029,CST-1368DR,4083,4336,11251,01.311,553
2023-12-17T01:11:57,42.805,6.029,CST-1368DR,4083,4338,11255,01.310,553
2023-12-17T01:14:59,42.805,6.029,CST-1368DR,4083,4339,11258,01.309,553
2023-12-17T01:18:00,42.805,6.029,CST-1368DR,4083,4341,11265,01.306,553
2023-12-17T01:21:02,42.805,6.029,CST-1368DR,4083,4338,11256,01.310,553
2023-12-17T01:24:03,42.805,6.029,CST-1368DR,4083,4340,11262,01.307,553
2023-12-17T01:27:05,42.805,6.029,CST-1368DR,4083,4341,11265,01.306,553
2023-12-17T01:30:07,42.805,6.029,CST-1368DR,4083,4341,11264,01.307,553
2023-12-17T01:33:08,42.805,6.029,CST-1368DR,4083,4341,11264,01.307,553
2023-12-17T01:36:10,42.805,6.029,CST-1368DR,4083,4339,11258,01.309,553
2023-12-17T01:39:11,42.805,6.029,CST-1368DR,4083,4339,11258,01.309,553
2023-12-17T01:42:13,42.805,6.029,CST-1368DR,4083,4339,11259,01.309,553
2023-12-17T01:45:14,42.805,6.029,CST-1368DR,4083,4339,11259,01.309,553
2023-12-17T01:48:16,42.805,6.029,CST-1368DR,4083,4340,11262,01.307,553
2023-12-17T01:51:18,42.805,6.029,CST-1368DR,4083,4337,11253,01.311,553
2023-12-17T01:54:19,42.805,6.029,CST-1368DR,4083,4340,11262,01.307,553
2023-12-17T01:57:21,42.805,6.029,CST-1368DR,4083,4339,11259,01.309,553
2023-12-17T02:00:22,42.805,6.029,CST-1368DR,4083,4335,11249,01.312,553
2023-12-17T02:03:24,42.805,6.029,CST-1368DR,4083,4339,11260,01.308,553
2023-12-17T02:06:25,42.805,6.029,CST-1368DR,4083,4337,11253,01.311,553
2023-12-17T02:09:27,42.805,6.029,CST-1368DR,4083,4338,11256,01.310,553
2023-12-17T02:12:29,42.805,6.029,CST-1368DR,4083,4339,11260,01.308,553
2023-12-17T02:15:30,42.805,6.029,CST-1368DR,4083,4339,11259,01.309,553
2023-12-17T02:18:32,42.805,6.029,CST-1368DR,4083,4339,11258,01.309,553
2023-12-17T02:21:33,42.805,6.029,CST-1368DR,4083,4336,11250,01.312,553
2023-12-17T02:24:35,42.805,6.029,CST-1368DR,4083,4336,11251,01.311,553
2023-12-17T02:27:36,42.805,6.029,CST-1368DR,4083,4338,11255,01.310,553
2023-12-17T02:30:38,42.805,6.029,CST-1368DR,4083,4337,11253,01.311,553
2023-12-17T02:33:40,42.805,6.029,CST-1368DR,4083,4340,11262,01.307,553
2023-12-17T02:36:41,42.805,6.029,CST-1368DR,4083,4336,11250,01.312,553
2023-12-17T02:39:43,42.805,6.029,CST-1368DR,4083,4334,11245,01.313,553
2023-12-17T02:42:44,42.805,6.029,CST-1368DR,4083,4337,11253,01.311,553
2023-12-17T02:45:46,42.805,6.029,CST-1368DR,4083,4340,11261,01.308,553
2023-12-17T02:48:48,42.805,6.029,CST-1368DR,4083,4335,11249,01.312,553
2023-12-17T02:51:49,42.805,6.029,CST-1368DR,4083,4337,11255,01.310,553
2023-12-17T02:54:51,42.805,6.029,CST-1368DR,4083,4335,11249,01.312,553
2023-12-17T02:57:52,42.805,6.029,CST-1368DR,4083,4337,11253,01.311,553
2023-12-17T03:00:54,42.805,6.029,CST-1368DR,4083,4336,11251,01.311,553
2023-12-17T03:03:55,42.805,6.029,CST-1368DR,4083,4334,11247,01.313,553
2023-12-17T03:06:57,42.805,6.029,CST-1368DR,4083,4337,11253,01.311,553
2023-12-17T03:09:59,42.805,6.029,CST-1368DR,4083,4337,11253,01.311,553
2023-12-17T03:13:00,42.805,6.029,CST-1368DR,4083,4336,11251,01.311,553
2023-12-17T03:16:02,42.805,6.029,CST-1368DR,4083,4338,11256,01.310,553
2023-12-17T03:19:03,42.805,6.029,CST-1368DR,4083,4338,11256,01.310,553
2023-12-17T03:22:05,42.805,6.029,CST-1368DR,4083,4337,11254,01.310,553
2023-12-17T03:25:06,42.805,6.029,CST-1368DR,4083,4337,11253,01.311,553
2023-12-17T03:28:08,42.805,6.029,CST-1368DR,4083,4333,11244,01.314,553
2023-12-17T03:31:10,42.805,6.029,CST-1368DR,4083,4338,11256,01.310,553
2023-12-17T03:34:11,42.805,6.029,CST-1368DR,4083,4336,11251,01.311,553
2023-12-17T03:37:13,42.805,6.029,CST-1368DR,4083,4339,11258,01.309,553
2023-12-17T03:40:14,42.805,6.029,CST-1368DR,4083,4335,11247,01.313,553
2023-12-17T03:43:16,42.805,6.029,CST-1368DR,4083,4338,11256,01.310,553
2023-12-17T03:46:18,42.805,6.029,CST-1368DR,4083,4333,11243,01.314,553
2023-12-17T03:49:19,42.805,6.029,CST-1368DR,4083,4336,11251,01.311,553
2023-12-17T03:52:21,42.805,6.029,CST-1368DR,4083,4331,11239,01.316,553
2023-12-17T03:55:22,42.805,6.029,CST-1368DR,4083,4337,11253,01.311,553
2023-12-17T03:58:24,42.805,6.029,CST-1368DR,4083,4337,11253,01.311,553
2023-12-17T04:01:25,42.805,6.029,CST-1368DR,4083,4335,11247,01.313,553
2023-12-17T04:04:27,42.805,6.029,CST-1368DR,4083,4333,11244,01.314,553
2023-12-17T04:07:29,42.805,6.029,CST-1368DR,4083,4337,11253,01.311,553
2023-12-17T04:10:30,42.805,6.029,CST-1368DR,4083,4336,11251,01.311,553
2023-12-17T04:13:32,42.805,6.029,CST-1368DR,4083,4336,11251,01.311,553
2023-12-17T04:16:33,42.805,6.029,CST-1368DR,4083,4332,11242,01.315,553
2023-12-17T04:19:35,42.805,6.029,CST-1368DR,4083,4334,11246,01.313,553
2023-12-17T04:22:37,42.805,6.029,CST-1368DR,4083,4335,11249,01.312,553
2023-12-17T04:25:38,42.805,6.029,CST-1368DR,4083,4335,11249,01.312,553
2023-12-17T04:28:40,42.805,6.029,CST-1368DR,4083,4335,11248,01.312,553
2023-12-17T04:31:41,42.805,6.029,CST-1368DR,4083,4339,11260,01.308,553
2023-12-17T04:34:43,42.805,6.029,CST-1368DR,4083,4339,11258,01.309,553
2023-12-17T04:37:44,42.805,6.029,CST-1368DR,4083,4337,11253,01.311,553
2023-12-17T04:40:46,42.805,6.029,CST-1368DR,4083,4336,11251,01.311,553
2023-12-17T04:43:48,42.805,6.029,CST-1368DR,4083,4335,11248,01.312,553
2023-12-17T04:46:49,42.805,6.029,CST-1368DR,4083,4337,11254,01.310,553
2023-12-17T04:49:51,42.805,6.029,CST-1368DR,4083,4336,11250,01.312,553
2023-12-17T04:52:52,42.805,6.029,CST-1368DR,4083,4336,11250,01.312,553
2023-12-17T04:55:54,42.805,6.029,CST-1368DR,4083,4335,11248,01.312,553
2023-12-17T04:58:55,42.805,6.029,CST-1368DR,4083,4336,11250,01.312,553
2023-12-17T05:01:57,42.805,6.029,CST-1368DR,4083,4336,11251,01.311,553
2023-12-17T05:04:59,42.805,6.029,CST-1368DR,4083,4337,11255,01.310,553
2023-12-17T05:08:00,42.805,6.029,CST-1368DR,4083,4336,11250,01.312,553
2023-12-17T05:11:02,42.805,6.029,CST-1368DR,4083,4335,11247,01.313,553
2023-12-17T05:14:03,42.805,6.029,CST-1368DR,4083,4336,11251,01.311,553
2023-12-17T05:17:05,42.805,6.029,CST-1368DR,4083,4333,11244,01.314,553
2023-12-17T05:20:07,42.805,6.029,CST-1368DR,4083,4335,11249,01.312,553
2023-12-17T05:23:08,42.805,6.029,CST-1368DR,4083,4334,11245,01.313,553
2023-12-17T05:26:10,42.805,6.029,CST-1368DR,4083,4336,11251,01.311,553
2023-12-17T05:29:11,42.805,6.029,CST-1368DR,4083,4336,11251,01.311,553
2023-12-17T05:32:13,42.805,6.029,CST-1368DR,4083,4340,11261,01.308,553
2023-12-17T05:35:14,42.805,6.029,CST-1368DR,4083,4334,11246,01.313,553
2023-12-17T05:38:16,42.805,6.029,CST-1368DR,4083,4334,11247,01.313,553
2023-12-17T05:41:18,42.805,6.029,CST-1368DR,4083,4334,11247,01.313,553
2023-12-17T05:44:19,42.805,6.029,CST-1368DR,4083,4334,11245,01.313,553
2023-12-17T05:47:21,42.805,6.029,CST-1368DR,4083,4335,11248,01.312,553
2023-12-17T05:50:22,42.805,6.029,CST-1368DR,4083,4334,11246,01.313,553
2023-12-17T05:53:24,42.805,6.029,CST-1368DR,4083,4337,11253,01.311,553
2023-12-17T05:56:25,42.805,6.029,CST-1368DR,4083,4337,11253,01.311,553
2023-12-17T05:59:27,42.805,6.029,CST-1368DR,4083,4337,11253,01.311,553
2023-12-17T06:02:29,42.805,6.029,CST-1368DR,4083,4332,11240,01.315,553
2023-12-17T06:05:30,42.805,6.029,CST-1368DR,4083,4336,11251,01.311,553
2023-12-17T06:08:32,42.805,6.029,CST-1368DR,4083,4334,11246,01.313,553
2023-12-17T06:11:33,42.805,6.029,CST-1368DR,4083,4330,11236,01.317,553
2023-12-17T06:14:35,42.805,6.029,CST-1368DR,4083,4336,11251,01.311,553
2023-12-17T06:17:37,42.805,6.029,CST-1368DR,4083,4336,11250,01.312,553
2023-12-17T06:20:38,42.805,6.029,CST-1368DR,4083,4336,11251,01.311,553
2023-12-17T06:23:40,42.805,6.029,CST-1368DR,4083,4334,11246,01.313,553
2023-12-17T06:26:41,42.805,6.029,CST-1368DR,4083,4336,11251,01.311,553
2023-12-17T06:29:43,42.805,6.029,CST-1368DR,4083,4337,11255,01.310,553
2023-12-17T06:32:44,42.805,6.029,CST-1368DR,4083,4335,11249,01.312,553
2023-12-17T06:35:46,42.805,6.029,CST-1368DR,4083,4335,11248,01.312,553
2023-12-17T06:38:48,42.805,6.029,CST-1368DR,4083,4337,11255,01.310,553
2023-12-17T06:41:49,42.805,6.029,CST-1368DR,4083,4336,11250,01.312,553
2023-12-17T06:44:51,42.805,6.029,CST-1368DR,4083,4337,11253,01.311,553
2023-12-17T06:47:52,42.805,6.029,CST-1368DR,4083,4334,11245,01.313,553
2023-12-17T06:50:54,42.805,6.029,CST-1368DR,4083,4336,11251,01.311,553
2023-12-17T06:53:55,42.805,6.029,CST-1368DR,4083,4335,11249,01.312,553
2023-12-17T06:56:57,42.805,6.029,CST-1368DR,4083,4338,11255,01.310,553
2023-12-17T06:59:59,42.805,6.029,CST-1368DR,4083,4336,11251,01.311,553
2023-12-17T07:03:00,42.805,6.029,CST-1368DR,4083,4336,11250,01.312,553
2023-12-17T07:06:02,42.805,6.029,CST-1368DR,4083,4335,11249,01.312,553
2023-12-17T07:09:03,42.805,6.029,CST-1368DR,4083,4336,11251,01.311,553
2023-12-17T07:12:05,42.805,6.029,CST-1368DR,4083,4336,11250,01.312,553
2023-12-17T07:15:06,42.805,6.029,CST-1368DR,4083,4336,11250,01.312,553
2023-12-17T07:18:08,42.805,6.029,CST-1368DR,4083,4339,11258,01.309,553
2023-12-17T07:21:10,42.805,6.029,CST-1368DR,4083,4337,11253,01.311,553
2023-12-17T07:24:11,42.805,6.029,CST-1368DR,4083,4335,11249,01.312,553
2023-12-17T07:27:13,42.805,6.029,CST-1368DR,4083,4337,11255,01.310,553
2023-12-17T07:30:15,42.805,6.029,CST-1368DR,4083,4336,11251,01.311,553
2023-12-17T07:33:16,42.805,6.029,CST-1368DR,4083,4331,11238,01.316,553
2023-12-17T07:36:18,42.805,6.029,CST-1368DR,4083,4338,11255,01.310,553
2023-12-17T07:39:19,42.805,6.029,CST-1368DR,4083,4337,11253,01.311,553
2023-12-17T07:42:21,42.805,6.029,CST-1368DR,4083,4337,11254,01.310,553
2023-12-17T07:45:22,42.805,6.029,CST-1368DR,4083,4336,11251,01.311,553
2023-12-17T07:48:24,42.805,6.029,CST-1368DR,4083,4335,11249,01.312,553
2023-12-17T07:51:26,42.805,6.029,CST-1368DR,4083,4336,11251,01.311,553
2023-12-17T07:54:27,42.805,6.029,CST-1368DR,4083,4338,11255,01.310,553
2023-12-17T07:57:29,42.805,6.029,CST-1368DR,4083,4336,11251,01.311,553
2023-12-17T08:00:30,42.805,6.029,CST-1368DR,4083,4338,11257,01.309,553
2023-12-17T08:03:32,42.805,6.029,CST-1368DR,4083,4338,11256,01.310,553
2023-12-17T08:06:34,42.805,6.029,CST-1368DR,4083,4337,11253,01.311,553
2023-12-17T08:09:35,42.805,6.029,CST-1368DR,4083,4336,11251,01.311,553
2023-12-17T08:12:37,42.805,6.029,CST-1368DR,4083,4338,11256,01.310,553
2023-12-17T08:15:38,42.805,6.029,CST-1368DR,4083,4338,11256,01.310,553
2023-12-17T08:18:40,42.805,6.029,CST-1368DR,4083,4339,11258,01.309,553
2023-12-17T08:21:41,42.805,6.029,CST-1368DR,4083,4338,11256,01.310,553
2023-12-17T08:24:43,42.805,6.029,CST-1368DR,4083,4336,11251,01.311,553
2023-12-17T08:27:45,42.805,6.029,CST-1368DR,4083,4338,11256,01.310,553
2023-12-17T08:30:46,42.805,6.029,CST-1368DR,4083,4337,11255,01.310,553
2023-12-17T08:33:48,42.805,6.029,CST-1368DR,4083,4338,11256,01.310,553
2023-12-17T08:36:49,42.805,6.029,CST-1368DR,4083,4339,11258,01.309,553
2023-12-17T08:39:51,42.805,6.029,CST-1368DR,4083,4337,11253,01.311,553
2023-12-17T08:42:52,42.805,6.029,CST-1368DR,4083,4337,11254,01.310,553
2023-12-17T08:45:54,42.805,6.029,CST-1368DR,4083,4334,11245,01.313,553
2023-12-17T08:48:56,42.805,6.029,CST-1368DR,4083,4337,11253,01.311,553
2023-12-17T08:51:57,42.805,6.029,CST-1368DR,4083,4337,11253,01.311,553
2023-12-17T08:54:59,42.805,6.029,CST-1368DR,4083,4336,11251,01.311,553
2023-12-17T08:58:00,42.805,6.029,CST-1368DR,4083,4337,11253,01.311,553
2023-12-17T09:01:02,42.805,6.029,CST-1368DR,4083,4338,11255,01.310,553
2023-12-17T09:04:03,42.805,6.029,CST-1368DR,4083,4336,11251,01.311,553
2023-12-17T09:07:05,42.805,6.029,CST-1368DR,4083,4336,11250,01.312,553
2023-12-17T09:10:07,42.805,6.029,CST-1368DR,4083,4335,11249,01.312,553
2023-12-17T09:13:08,42.805,6.029,CST-1368DR,4083,4336,11251,01.311,553
2023-12-17T09:16:10,42.805,6.029,CST-1368DR,4083,4339,11259,01.309,553
2023-12-17T09:19:11,42.805,6.029,CST-1368DR,4083,4336,11251,01.311,553
2023-12-17T09:22:13,42.805,6.029,CST-1368DR,4083,4337,11253,01.311,553
2023-12-17T09:25:15,42.805,6.029,CST-1368DR,4083,4334,11246,01.313,553
2023-12-17T09:28:16,42.805,6.029,CST-1368DR,4083,4315,11197,01.331,553
2023-12-17T09:31:18,42.805,6.029,CST-1368DR,4083,4320,11208,01.327,553
2023-12-17T09:34:19,42.805,6.029,CST-1368DR,4083,4319,11206,01.327,553
2023-12-17T09:37:21,42.805,6.029,CST-1368DR,4083,4326,11224,01.321,553
2023-12-17T09:40:23,42.805,6.029,CST-1368DR,4083,4329,11233,01.318,553
2023-12-17T09:43:24,42.805,6.029,CST-1368DR,4083,4326,11224,01.321,553
2023-12-17T09:46:26,42.805,6.029,CST-1368DR,4083,4328,11231,01.318,553
2023-12-17T09:49:27,42.805,6.029,CST-1368DR,4083,4329,11232,01.318,553
2023-12-17T09:52:29,42.805,6.029,CST-1368DR,4083,4324,11220,01.322,553
2023-12-17T09:55:31,42.805,6.029,CST-1368DR,4083,4327,11227,01.320,553
2023-12-17T09:58:32,42.805,6.029,CST-1368DR,4083,4326,11224,01.321,553
2023-12-17T10:01:34,42.805,6.029,CST-1368DR,4083,4327,11228,01.320,553
2023-12-17T10:04:35,42.805,6.029,CST-1368DR,4083,4325,11223,01.321,553
2023-12-17T10:07:37,42.805,6.029,CST-1368DR,4083,4326,11224,01.321,553
2023-12-17T10:10:38,42.805,6.029,CST-1368DR,4083,4327,11227,01.320,553
2023-12-17T10:13:40,42.805,6.029,CST-1368DR,4083,4321,11211,01.326,553
2023-12-17T10:16:42,42.805,6.029,CST-1368DR,4083,4327,11227,01.320,553
2023-12-17T10:19:43,42.805,6.029,CST-1368DR,4083,4321,11212,01.325,553
2023-12-17T10:22:45,42.805,6.029,CST-1368DR,4083,4324,11220,01.322,553
2023-12-17T10:25:46,42.805,6.029,CST-1368DR,4083,4321,11211,01.326,553
2023-12-17T10:28:48,42.805,6.029,CST-1368DR,4083,4324,11219,01.323,553
2023-12-17T10:31:49,42.805,6.029,CST-1368DR,4083,4321,11212,01.325,553
2023-12-17T10:34:51,42.805,6.029,CST-1368DR,4083,4324,11221,01.322,553
2023-12-17T10:37:53,42.805,6.029,CST-1368DR,4083,4323,11218,01.323,553
2023-12-17T10:40:54,42.805,6.029,CST-1368DR,4083,4327,11228,01.320,553
2023-12-17T10:43:56,42.805,6.029,CST-1368DR,4083,4328,11230,01.319,553
2023-12-17T10:46:57,42.805,6.029,CST-1368DR,4083,4324,11220,01.322,553
2023-12-17T10:49:59,42.805,6.029,CST-1368DR,4083,4322,11215,01.324,553
2023-12-17T10:53:00,42.805,6.029,CST-1368DR,4083,4328,11229,01.319,553
2023-12-17T10:56:02,42.805,6.029,CST-1368DR,4083,4324,11220,01.322,553
2023-12-17T10:59:04,42.805,6.029,CST-1368DR,4083,4326,11226,01.320,553
2023-12-17T11:02:05,42.805,6.029,CST-1368DR,4083,4326,11224,01.321,553
2023-12-17T11:05:07,42.805,6.029,CST-1368DR,4083,4324,11219,01.323,553
2023-12-17T11:08:08,42.805,6.029,CST-1368DR,4083,4321,11213,01.325,553
2023-12-17T11:11:10,42.805,6.029,CST-1368DR,4083,4331,11238,01.316,553
2023-12-17T11:14:12,42.805,6.029,CST-1368DR,4083,4324,11221,01.322,553
2023-12-17T11:17:13,42.805,6.029,CST-1368DR,4083,4324,11221,01.322,553
2023-12-17T11:20:15,42.805,6.029,CST-1368DR,4083,4323,11218,01.323,553
2023-12-17T11:23:16,42.805,6.029,CST-1368DR,4083,4323,11216,01.324,553
2023-12-17T11:26:18,42.805,6.029,CST-1368DR,4083,4322,11216,01.324,553
2023-12-17T11:29:19,42.805,6.029,CST-1368DR,4083,4322,11214,01.325,552
2023-12-17T11:32:22,42.805,6.029,CST-1368DR,4083,4327,11227,01.320,553
2023-12-17T11:35:24,42.805,6.029,CST-1368DR,4083,4326,11224,01.321,553
2023-12-17T11:38:25,42.805,6.029,CST-1368DR,4083,4322,11215,01.324,553
2023-12-17T11:41:27,42.805,6.029,CST-1368DR,4083,4319,11207,01.327,553
2023-12-17T11:44:29,42.805,6.029,CST-1368DR,4083,4322,11215,01.324,553
2023-12-17T11:47:30,42.805,6.029,CST-1368DR,4083,4321,11212,01.325,553
2023-12-17T11:50:32,42.805,6.029,CST-1368DR,4083,4320,11210,01.326,553
2023-12-17T11:53:33,42.805,6.029,CST-1368DR,4083,4323,11218,01.323,553
2023-12-17T11:56:35,42.805,6.029,CST-1368DR,4083,4318,11205,01.328,553
2023-12-17T11:59:37,42.805,6.029,CST-1368DR,4083,4323,11218,01.323,553
2023-12-17T12:02:38,42.805,6.029,CST-1368DR,4083,4327,11227,01.320,553
2023-12-17T12:05:40,42.805,6.029,CST-1368DR,4083,4320,11209,01.326,553
2023-12-17T12:08:41,42.805,6.029,CST-1368DR,4083,4324,11219,01.323,553
2023-12-17T12:11:43,42.805,6.029,CST-1368DR,4083,4321,11213,01.325,553
2023-12-17T12:14:44,42.805,6.029,CST-1368DR,4083,4320,11208,01.327,553
2023-12-17T12:17:46,42.805,6.029,CST-1368DR,4083,4320,11208,01.327,553
2023-12-17T12:20:48,42.805,6.029,CST-1368DR,4083,4321,11212,01.325,553
2023-12-17T12:23:49,42.805,6.029,CST-1368DR,4083,4327,11229,01.319,553
2023-12-17T12:26:51,42.805,6.029,CST-1368DR,4083,4325,11223,01.321,553
2023-12-17T12:29:52,42.805,6.029,CST-1368DR,4083,4326,11225,01.321,553
2023-12-17T12:32:54,42.805,6.029,CST-1368DR,4083,4326,11226,01.320,553
2023-12-17T12:35:55,42.805,6.029,CST-1368DR,4083,4325,11223,01.321,553
2023-12-17T12:38:57,42.805,6.029,CST-1368DR,4083,4326,11224,01.321,553
2023-12-17T12:41:59,42.805,6.029,CST-1368DR,4083,4322,11216,01.324,553
2023-12-17T12:45:00,42.805,6.029,CST-1368DR,4083,4324,11219,01.323,553
2023-12-17T12:48:02,42.805,6.029,CST-1368DR,4083,4325,11223,01.321,553
2023-12-17T12:51:03,42.805,6.029,CST-1368DR,4083,4325,11222,01.322,553
2023-12-17T12:54:05,42.805,6.029,CST-1368DR,4083,4322,11216,01.324,553
2023-12-17T12:57:07,42.805,6.029,CST-1368DR,4083,4322,11214,01.325,553
2023-12-17T13:00:08,42.805,6.029,CST-1368DR,4083,4324,11219,01.323,553
2023-12-17T13:03:10,42.805,6.029,CST-1368DR,4083,4328,11229,01.319,553
2023-12-17T13:06:11,42.805,6.029,CST-1368DR,4083,4322,11215,01.324,553
2023-12-17T13:09:13,42.805,6.029,CST-1368DR,4083,4322,11214,01.325,553
2023-12-17T13:12:14,42.805,6.029,CST-1368DR,4083,4325,11222,01.322,553
2023-12-17T13:15:16,42.805,6.029,CST-1368DR,4083,4326,11226,01.320,553
2023-12-17T13:18:18,42.805,6.029,CST-1368DR,4083,4325,11223,01.321,553
2023-12-17T13:21:19,42.805,6.029,CST-1368DR,4083,4322,11214,01.325,553
2023-12-17T13:24:21,42.805,6.029,CST-1368DR,4083,4328,11229,01.319,553
2023-12-17T13:27:22,42.805,6.029,CST-1368DR,4083,4327,11227,01.320,553
2023-12-17T13:30:25,42.805,6.029,CST-1368DR,4083,4323,11218,01.323,553
2023-12-17T13:33:27,42.805,6.029,CST-1368DR,4083,4326,11224,01.321,553
2023-12-17T13:36:29,42.805,6.029,CST-1368DR,4083,4319,11207,01.327,553
2023-12-17T13:39:30,42.805,6.029,CST-1368DR,4083,4322,11214,01.325,553
2023-12-17T13:42:32,42.805,6.029,CST-1368DR,4083,4323,11216,01.324,553
2023-12-17T13:45:33,42.805,6.029,CST-1368DR,4083,4327,11227,01.320,553
2023-12-17T13:48:35,42.805,6.029,CST-1368DR,4083,4326,11224,01.321,553
2023-12-17T13:51:36,42.805,6.029,CST-1368DR,4083,4318,11205,01.328,553
2023-12-17T13:54:38,42.805,6.029,CST-1368DR,4083,4326,11224,01.321,553
2023-12-17T13:57:40,42.805,6.029,CST-1368DR,4083,4321,11212,01.325,553
2023-12-17T14:00:41,42.805,6.029,CST-1368DR,4083,4315,11195,01.331,553
2023-12-17T14:03:43,42.805,6.029,CST-1368DR,4083,4319,11207,01.327,553
2023-12-17T14:06:44,42.805,6.029,CST-1368DR,4083,4321,11212,01.325,553
2023-12-17T14:09:46,42.805,6.029,CST-1368DR,4083,4334,11245,01.313,553
2023-12-17T14:12:47,42.805,6.029,CST-1368DR,4083,4334,11245,01.313,553
2023-12-17T14:15:49,42.805,6.029,CST-1368DR,4083,4333,11242,01.315,553
2023-12-17T14:18:51,42.805,6.029,CST-1368DR,4083,4330,11235,01.317,553
2023-12-17T14:21:52,42.805,6.029,CST-1368DR,4083,4332,11242,01.315,553
2023-12-17T14:24:54,42.805,6.029,CST-1368DR,4083,4334,11246,01.313,553
2023-12-17T14:27:55,42.805,6.029,CST-1368DR,4083,4333,11244,01.314,553
2023-12-17T14:30:57,42.805,6.029,CST-1368DR,4083,4328,11231,01.318,553
2023-12-17T14:33:59,42.805,6.029,CST-1368DR,4083,4332,11240,01.315,553
2023-12-17T14:37:00,42.805,6.029,CST-1368DR,4083,4332,11240,01.315,553
2023-12-17T14:40:02,42.805,6.029,CST-1368DR,4083,4330,11236,01.317,553
2023-12-17T14:43:03,42.805,6.029,CST-1368DR,4083,4329,11234,01.317,553
2023-12-17T14:46:05,42.805,6.029,CST-1368DR,4083,4334,11247,01.313,553
2023-12-17T14:49:06,42.805,6.029,CST-1368DR,4083,4333,11244,01.314,553
2023-12-17T14:52:08,42.805,6.029,CST-1368DR,4083,4332,11240,01.315,553
2023-12-17T14:55:10,42.805,6.029,CST-1368DR,4083,4334,11245,01.313,553
2023-12-17T14:58:11,42.805,6.029,CST-1368DR,4083,4334,11246,01.313,553
2023-12-17T15:01:13,42.805,6.029,CST-1368DR,4083,4334,11245,01.313,553
2023-12-17T15:04:14,42.805,6.029,CST-1368DR,4083,4334,11245,01.313,553
2023-12-17T15:07:16,42.805,6.029,CST-1368DR,4083,4329,11234,01.317,553
2023-12-17T15:10:17,42.805,6.029,CST-1368DR,4083,4334,11245,01.313,553
2023-12-17T15:13:19,42.805,6.029,CST-1368DR,4083,4335,11249,01.312,553
2023-12-17T15:16:21,42.805,6.029,CST-1368DR,4083,4334,11246,01.313,553
2023-12-17T15:19:22,42.805,6.029,CST-1368DR,4083,4332,11240,01.315,553
2023-12-17T15:22:24,42.805,6.029,CST-1368DR,4083,4335,11249,01.312,553
2023-12-17T15:25:25,42.805,6.029,CST-1368DR,4083,4335,11248,01.312,553
2023-12-17T15:28:27,42.805,6.029,CST-1368DR,4083,4329,11232,01.318,553
2023-12-17T15:31:29,42.805,6.029,CST-1368DR,4083,4331,11238,01.316,553
2023-12-17T15:35:06,42.805,6.029,CST-1368DR,4083,4331,11238,01.316,553
2023-12-17T15:38:08,42.805,6.029,CST-1368DR,4083,4335,11248,01.312,553
2023-12-17T15:41:09,42.805,6.029,CST-1368DR,4083,4336,11250,01.312,553
2023-12-17T15:44:11,42.805,6.029,CST-1368DR,4083,4335,11248,01.312,553
2023-12-17T15:47:13,42.805,6.029,CST-1368DR,4083,4336,11251,01.311,553
2023-12-17T15:50:14,42.805,6.029,CST-1368DR,4083,4335,11248,01.312,553
2023-12-17T15:53:16,42.805,6.029,CST-1368DR,4083,4331,11238,01.316,553
2023-12-17T15:56:17,42.805,6.029,CST-1368DR,4083,4332,11241,01.315,553
2023-12-17T15:59:19,42.805,6.029,CST-1368DR,4083,4331,11238,01.316,553
2023-12-17T16:02:21,42.805,6.029,CST-1368DR,4083,4331,11239,01.316,553
2023-12-17T16:05:22,42.805,6.029,CST-1368DR,4083,4330,11236,01.317,553
2023-12-17T16:08:24,42.805,6.029,CST-1368DR,4083,4332,11240,01.315,553
2023-12-17T16:11:25,42.805,6.029,CST-1368DR,4083,4332,11242,01.315,553
2023-12-17T16:14:27,42.805,6.029,CST-1368DR,4083,4333,11242,01.315,553
2023-12-17T16:17:28,42.805,6.029,CST-1368DR,4083,4331,11238,01.316,553
2023-12-17T16:20:30,42.805,6.029,CST-1368DR,4083,4332,11240,01.315,553
2023-12-17T16:23:32,42.805,6.029,CST-1368DR,4083,4332,11240,01.315,553
2023-12-17T16:26:33,42.805,6.029,CST-1368DR,4083,4334,11247,01.313,553
2023-12-17T16:29:35,42.805,6.029,CST-1368DR,4083,4332,11242,01.315,553
2023-12-17T16:32:36,42.805,6.029,CST-1368DR,4083,4332,11241,01.315,553
2023-12-17T16:35:38,42.805,6.029,CST-1368DR,4083,4332,11240,01.315,553
2023-12-17T16:38:39,42.805,6.029,CST-1368DR,4083,4332,11242,01.315,553